User: anonymous   Login
Location: Celina Division
(33.3022°N, 96.7580°W)
Time: 21:12:18
(UTC+00:00)
Language:

SJ 16-02 - Orbit

View from above orbital plane
View from above orbital plane
View from above satellite
View from above satellite

Ground track
Ground track

The orbit data is extracted from the following two-line orbital elements,

1 41634U 16043A   22139.21342468  .00001278  00000-0  14877-3 0  9997
2 41634  75.0041 202.1975 0006872  43.5478 316.6281 14.86131719319312
Epoch (UTC): 19 May 2022 05:07:19
Eccentricity: 0.0006872
inclination: 75.0041°
perigee height: 605 km
apogee height: 615 km
right ascension of ascending node: 202.1975°
argument of perigee: 43.5478°
revolutions per day: 14.86131719
mean anomaly at epoch: 316.6281°
orbit number at epoch: 31931

The dashed part of the orbit path shows where the satellite is in the earth's shadow,  

DLR